Weather Roundup
Issued by NWS Chicago, IL

Home | Current Version | Previous Version | Graphics & Text | Print | Product List | Glossary On
Versions: 1 2 3 4 5 6 7 8 9 10 11 12 13 14 15 16 17 18 19 20 21 22 23 24 25 26 27 28 29 30 31 32 33 34 35 36 37 38 39 40 41 42 43 44 45 46 47 48 49 50
000
NZUS59 KLOT 281203
HRRLOT

CHICAGO AREA WEATHER ROUNDUP
NATIONAL WEATHER SERVICE CHICAGO/ROMEOVILLE IL
700 AM CDT FRI APR 28 2017

NOTE: "FAIR" INDICATES FEW OR NO CLOUDS BELOW 12,000 FEET WITH NO
SIGNIFICANT WEATHER AND/OR OBSTRUCTIONS TO VISIBILITY.

* THESE STATIONS ARE NOT UNDER NWS QUALITY CONTROL. THEY ALSO MAY NOT
  REPORT WEATHER SUCH AS PRECIPITATION OR FOG.

ILZ005-006-012>014-019>023-281300-
NORTHEAST ILLINOIS

CITY           SKY/WX    TMP DP  RH WIND       PRES   REMARKS
OHARE          PTSUNNY   42  34  73 S5        29.93R
6HR MIN TEMP:  40; 6HR MAX TEMP:  43;

MIDWAY         PTSUNNY   45  37  73 S5        29.95R
6HR MIN TEMP:  42; 6HR MAX TEMP:  45;

AURORA         SUNNY     40  37  89 S3        29.94R
6HR MIN TEMP:  37; 6HR MAX TEMP:  41;

LANSING*       MOSUNNY   40  40 100 CALM      29.94R FOG
JOLIET*        SUNNY     43  41  91 CALM      29.94S
WAUKEGAN       CLOUDY    39  34  82 SW3       29.91R
6HR MIN TEMP:  37; 6HR MAX TEMP:  43;

DUPAGE AIRPORT SUNNY     40  38  93 S5        29.93R
6HR MIN TEMP:  37; 6HR MAX TEMP:  41;

WHEELING       CLOUDY    42  36  79 S5        29.94R
6HR MIN TEMP:  39; 6HR MAX TEMP:  43;

KANKAKEE*      MOSUNNY   47  46  95 CALM      29.93S
MORRIS*        MOSUNNY   41  37  86 CALM      29.93R
NORTHERLY ISL    N/A     45  35  68 S7          N/A
$$

WIZ051-052-058>065-066-070>072-281300-
SOUTHEAST WISCONSIN

CITY           SKY/WX    TMP DP  RH WIND       PRES   REMARKS
MILWAUKEE      CLOUDY    39  32  76 SW6       29.90R
6HR MIN TEMP:  39; 6HR MAX TEMP:  43;

KENOSHA*       SUNNY     38  32  79 W5        29.90R
RACINE*        MOSUNNY   39  31  72 W5        29.91R
WAUKESHA       SUNNY     34  30  86 CALM      29.90R
WEST BEND      MOSUNNY   36  30  80 W10       29.89R
$$

INZ001>003-010>013-019-020-281300-
NORTHWEST INDIANA

CITY           SKY/WX    TMP DP  RH WIND       PRES   REMARKS
GARY*          MOSUNNY   45  43  93 CALM      29.95R
MICHIGAN CITY* NOT AVBL
RENSSELAER*    NOT AVBL
VALPARAISO     MOSUNNY   46  43  89 SW3       29.95R
$$

LMZ740>746-281300-
SOUTHERN LAKE MICHIGAN

STATION/POSITION TIME  SKY/WX   TEMP WIND        PRES    VSBY
                                AIR  DIR/SP/G
                 (UTC)          (F)  (DEG/KT/KT) (MB)    (MI)
HARRISON CRIB    1110            45  290/  4/  5   N/A
BURNHAM HARBOR   1145            45  200/  6/  9   N/A
CALUMET HARBOR   1130            45  220/  3/  4 1013.3R
BURNS HARBOR     1140            46     CALM     1014.6R
MICHIGAN CITY    1130            46  200/  1/  1   N/A
$$

ABBREVIATIONS USED IN REMARKS
   TC - TEMPERATURE IN CELSIUS
  WCI - WIND CHILL INDEX
   HX - HEAT INDEX
  VSB - VISIBILITY
$$




USA.gov is the U.S. government's official web portal to all federal, state and local government web resources and services.